This is the latest recevied weather packets stored in our database for station/object IZ5ILU-16. If no packets are shown the sender has not sent any weather packets the latest 10 day(s).
| Time | Temp. | Humidity | Pressure | Rain* | Wind** | Luminosity | Snow |
|---|---|---|---|---|---|---|---|
| 1788455502 | 30° C | 53% | 1017.4 hPa | 0 mm | - | - | - |
| 1788454902 | 30.56° C | 51% | 1017.4 hPa | 0 mm | - | - | - |
| 1788454302 | 31.11° C | 49% | 1017.4 hPa | 0 mm | - | - | - |
| 1788453702 | 31.67° C | 49% | 1017.3 hPa | 0 mm | - | - | - |
| 1788453102 | 31.67° C | 48% | 1017.1 hPa | 0 mm | - | - | - |
| 1788452502 | 31.67° C | 46% | 1017.1 hPa | 0 mm | - | - | - |
| 1788451902 | 31.67° C | 43% | 1017.4 hPa | 0 mm | - | - | - |
| 1788451302 | 32.22° C | 42% | 1017.3 hPa | 0 mm | - | - | - |
| 1788450702 | 32.22° C | 43% | 1017.2 hPa | 0 mm | - | - | - |
| 1788450102 | 32.78° C | 43% | 1017.3 hPa | 0 mm | - | - | - |
| 1788449502 | 32.22° C | 44% | 1017.3 hPa | 0 mm | - | - | - |
| 1788448902 | 32.22° C | 44% | 1017.4 hPa | 0 mm | - | - | - |
| 1788448302 | 32.22° C | 44% | 1017.4 hPa | 0 mm | - | - | - |
| 1788447702 | 32.22° C | 44% | 1017.3 hPa | 0 mm | - | - | - |
| 1788447116 | 31.67° C | 43% | 1017.5 hPa | 0 mm | - | - | - |
| 1788446502 | 31.67° C | 40% | 1017.6 hPa | 0 mm | - | - | - |
| 1788445902 | 31.67° C | 40% | 1017.5 hPa | 0 mm | - | - | - |
| 1788445302 | 31.67° C | 43% | 1017.5 hPa | 0 mm | - | - | - |
| 1788444702 | 31.11° C | 44% | 1017.7 hPa | 0 mm | - | - | - |
| 1788444102 | 31.11° C | 45% | 1017.6 hPa | 0 mm | - | - | - |
| 1788443502 | 31.11° C | 46% | 1017.7 hPa | 0 mm | - | - | - |
| 1788442902 | 31.11° C | 46% | 1017.7 hPa | 0 mm | - | - | - |
| 1788442302 | 30.56° C | 48% | 1017.7 hPa | 0 mm | - | - | - |
| 1788441702 | 30.56° C | 49% | 1017.7 hPa | 0 mm | - | - | - |
| 1788441102 | 30° C | 51% | 1017.8 hPa | 0 mm | - | - | - |
* Rain latest hour (hover to see other rain measurements)
** Current wind speed in m/s (hover to see current wind gust speed)